Location: Casteau
(50.5142°N, 4.0161°E)
Time: 20:56:14
(UTC+00:00)

Tiros 1 - Pass Details

Date: 01 August 2021
Orbit: 630 x 663 km, 48.4° (Epoch: 28 September)

Event Time Altitude Azimuth Distance (km) Brightness Sun altitude
Rises 21:26:25 0° 275° (W) 2,974 11.2 -14.7°
Reaches altitude 10° 21:28:48 10° 272° (W) 2,056 10.2 -15.0°
Maximum altitude 21:33:27 59° 193° (SSW) 745 7.2 -15.4°
Enters shadow 21:36:06 24° 122° (ESE) 1,318 8.2 -15.6°
Drops below altitude 10° 21:38:03 10° 114° (ESE) 2,031 - -15.8°
Sets 21:40:24 0° 111° (ESE) 2,934 - -16.0°
